Location: Banff
(51.1667°N, 115.5667°W)
Time: 15:47:52
(UTC+00:00)

Altair - Pass Details

Date: 02 December 2020
Orbit: 1501 x 1682 km, 47.2° (Epoch: 15 January)

Event Time Altitude Azimuth Distance (km) Brightness Sun altitude
Rises 03:14:08 0° 220° (SW) 4,743 10.5 -32.9°
Reaches altitude 10° 03:17:26 10° 214° (SW) 3,736 9.8 -33.4°
Enters shadow 03:24:06 38° 175° (S) 2,179 8.1 -34.4°
